map of PLL home
PLL - Airport
Location
City:  Manaus, Amazonas, Brazil
Name:Manaus AFB
Old (Alt.):Ponta Pelada Airport
ICAO:SBMN
IATA:PLL

Details
Type:Airport (Aerodrome, Airfield)
Use:Military
Latitude:308'46"S (-3.146041)
Longitude:5959'11"W (-59.986299)
Datum:WGS 1984
Elevation:267 ft (81 m)
Variation:15.74W (WMM2015 magnetic declination)
-0.12 annual change
Runways:1
Longest:7605 × 148 ft (2318 × 45 m), paved

Time
Time Zone:UTC-4
Local Time:

Weather
METAR:SBMN 250000Z 18002KT 9999 FEW010 28/24 Q1012
TAF:SBMN 241600Z 2418/2518 12008KT 9999 SCT020 FEW025TCU TN25/2507Z T X30/2518Z PROB30
TEMPO 2418/2422 5000 TSRA SCT020 FEW025CB
BECMG 2422/2424 360 05KT FEW010
BECMG 2509/2511 30005KT BKN015
BECMG 2515/2517 12008KT SCT020 FEW025TCU
RMK PEH

Related Locations
Nearby:
Farthest:SMM: 12307 mi / 19806 km
Semporna, 12, MY

Find:

   beyond  
but within

Other Information
Maps:
NOTAMs:
Links:
Sources:

  
flag of Brazil
flag of Amazonas
flag of Manaus
  

Sectional Chart

Flight Planning
at skyvector.com

Satellite Image

Google Maps Satellite view

 

Copyright © 2004-2017 Karl L. Swartz. All rights reserved.
The Great Circle Mapper name and logo are trademarks of the Great Circle Mapper.
All other trademarks mentioned herein belong to their respective owners.
Please see credits for attibutions and further copyright information.

  Follow gcmap on Facebook Follow gcmap on Twitter Follow gcmap on Google+ GCmap on LinkedIn

hCard Microformat

Geo Microformat